• Join FlightAware (Why Join?)
  • Login
  • US Flag GB Flag 
03:37 EDT


 

Airport Tracker/Info


-or-


 

Live Flight TrackerFlight Track Log ✈ UAL685 ✈ 04-May-2013 ✈ KORD - KSFO

Flight Track Log - Related Links

Times and Time Zones

All times are in EDT time to prevent confusion due to time zone crossing. See the UAL685 flight status page for this flight to view local times or setup timezone preferences in your user account.

Time Position Orientation Groundspeed Altitude Reporting Facility
EDT Latitude Longitude Course Direction KTS MPH feet Rate Location/Type
19:17 42.0333 -87.9667 261° West 223 257 2,800  Level Chicago TRACON
19:18 42.1000 -88.0333 323° Northwest 263 303 4,900 1,260 Climbing Chicago TRACON
19:18 42.1311 -88.0586 329° Northwest 271 312 5,000 600 Climbing Chicago Center
19:19 41.9128 -88.4995 261° West  Level FlightAware Approximate
19:19 42.1633 -88.1581 294° West 289 333 6,000  Level Chicago Center
19:20 41.8951 -88.6505 261° West  Level FlightAware Approximate
19:20 42.1850 -88.2836 283° West 304 350 9,400  Level Chicago Center
19:21 41.8775 -88.8016 261° West  Level FlightAware Approximate
19:21 42.1603 -88.3886 252° West 300 345 11,800  Level Chicago Center
19:22 41.8602 -88.9527 261° West  Level FlightAware Approximate
19:22 42.1128 -88.5000 240° Southwest 336 387 13,200  Level Chicago Center
19:23 42.0608 -88.6175 239° Southwest 362 417 15,600 2,160 Climbing Chicago Center
19:24 42.0092 -88.7436 241° Southwest 381 438 17,700 1,860 Climbing Chicago Center
19:25 41.9556 -88.8669 240° Southwest 386 444 19,500 1,800 Climbing Chicago Center
19:27 41.9097 -89.0350 250° West 417 480 21,400 1,620 Climbing Chicago Center
19:28 41.8950 -89.1889 263° West 421 484 22,900 1,440 Climbing Chicago Center
19:29 41.8808 -89.3506 263° West 434 499 24,400 1,320 Climbing Chicago Center
19:30 41.8739 -89.5125 267° West 439 505 25,700 1,260 Climbing Chicago Center
19:31 41.8675 -89.6778 267° West 444 511 27,100 1,320 Climbing Chicago Center
19:32 41.8664 -89.8453 270° West 451 519 28,500 1,260 Climbing Chicago Center
19:33 41.8639 -90.0417 269° West 462 532 29,800 1,260 Climbing Chicago Center
19:34 41.8608 -90.2150 269° West 467 537 31,100 1,260 Climbing Chicago Center
19:35 41.8556 -90.3881 268° West 468 539 32,400 1,140 Climbing Chicago Center
19:36 41.8508 -90.5597 268° West 466 536 33,500 780 Climbing Chicago Center
19:37 41.8439 -90.7381 267° West 479 551 34,000 240 Climbing Chicago Center
19:38 41.8389 -90.9111 268° West 470 541 34,000  Level Chicago Center
19:40 41.8278 -91.2892 268° West 464 534 34,000  Level Chicago Center
19:41 41.8217 -91.4606 267° West 462 532 34,000  Level Chicago Center
19:42 41.8164 -91.6314 268° West 461 531 34,000  Level Chicago Center
19:43 41.8100 -91.8053 267° West 465 535 34,000  Level Chicago Center
19:44 41.8039 -91.9747 267° West 461 531 34,000  Level Chicago Center
19:45 41.7969 -92.1456 267° West 460 529 34,000  Level Chicago Center
19:46 41.7897 -92.3172 267° West 463 533 34,000  Level Chicago Center
19:47 41.7819 -92.4867 267° West 460 529 34,000  Level Chicago Center
19:48 41.7739 -92.6911 267° West 461 531 34,000  Level Chicago Center
19:49 41.7650 -92.8606 266° West 460 529 34,000  Level Minneapolis Center
19:50 41.7575 -93.0292 267° West 459 528 34,000  Level Minneapolis Center
19:51 41.7478 -93.2336 266° West 462 532 34,000  Level Minneapolis Center
19:52 41.7378 -93.4039 266° West 463 533 34,000  Level Minneapolis Center
19:53 41.7297 -93.5722 266° West 460 529 34,000  Level Minneapolis Center
19:54 41.7208 -93.7411 266° West 461 531 34,000  Level Minneapolis Center
19:56 41.7011 -94.0908 266° West 461 531 34,000  Level Minneapolis Center
19:59 41.6892 -94.2842 265° West  Level FlightAware Approximate
19:59 41.6714 -94.6006 265° West 458 527 34,000  Level Minneapolis Center
20:00 41.6600 -94.7694 265° West 457 526 34,000  Level Minneapolis Center
20:01 41.6492 -94.9383 265° West 457 526 34,000  Level Minneapolis Center
20:02 41.6369 -95.1378 265° West 452 520 34,000  Level Minneapolis Center
20:03 41.6242 -95.3056 264° West 454 522 34,000  Level Minneapolis Center
20:04 41.6142 -95.4722 265° West 452 520 34,000  Level Minneapolis Center
20:05 41.6014 -95.6392 264° West 453 521 34,000  Level Minneapolis Center
20:06 41.5903 -95.7969 265° West 452 520 34,000  Level Minneapolis Center
20:07 41.5811 -95.9303 265° West 451 519 34,000  Level Minneapolis Center
20:09 41.5658 -96.1297 264° West 450 518 34,000  Level Minneapolis Center
20:10 41.5508 -96.3294 264° West 450 518 34,000  Level Minneapolis Center
20:11 41.5386 -96.4936 264° West 447 514 34,000  Level Minneapolis Center
20:12 41.5253 -96.6572 264° West 449 517 34,000  Level Minneapolis Center
20:13 41.5106 -96.8225 263° West 450 518 34,000  Level Minneapolis Center
20:14 41.4978 -96.9875 264° West 449 517 34,000  Level Minneapolis Center
20:15 41.4828 -97.1525 263° West 449 517 34,000  Level Minneapolis Center
20:16 41.4692 -97.3169 264° West 448 516 34,000  Level Minneapolis Center
20:17 41.4525 -97.5128 264° West 446 513 34,000  Level Minneapolis Center
20:18 41.4386 -97.6761 264° West 444 511 34,000  Level Minneapolis Center
20:19 41.4225 -97.8389 263° West 444 511 34,000  Level Minneapolis Center
20:20 41.4058 -98.0325 264° West 440 506 34,000  Level Minneapolis Center
20:21 41.3903 -98.1969 263° West 437 503 34,000  Level Minneapolis Center
20:22 41.3753 -98.3569 263° West 437 503 34,000  Level Minneapolis Center
20:23 41.3664 -98.5150 266° West 438 504 34,000  Level Minneapolis Center
20:24 41.3642 -98.6772 269° West 439 505 34,000  Level Minneapolis Center
20:25 41.3578 -98.8392 267° West 439 505 34,000  Level Minneapolis Center
20:25 41.3533 -98.9022 265° West 439 505 34,000  Level Denver Center
20:26 41.3458 -99.0625 266° West 440 506 34,000  Level Denver Center
20:27 41.3375 -99.2228 266° West 439 505 34,000  Level Denver Center
20:28 41.3297 -99.3858 266° West 442 509 34,000  Level Denver Center
20:29 41.3208 -99.5539 266° West 441 507 34,000  Level Denver Center
20:30 41.3117 -99.7369 266° West 444 511 34,000  Level Denver Center
20:32 41.3031 -99.8931 266° West 444 511 34,000  Level Denver Center
20:33 41.2950 -100.0489 266° West 444 511 34,000  Level Denver Center
20:34 41.2831 -100.2583 266° West 446 513 34,000  Level Denver Center
20:35 41.2722 -100.4417 266° West 448 516 34,000  Level Denver Center
20:36 41.2636 -100.5989 266° West 449 517 34,000  Level Denver Center
20:37 41.2519 -100.7831 265° West 450 518 34,000  Level Denver Center
20:38 41.2431 -100.9408 266° West 451 519 34,000  Level Denver Center
20:39 41.2325 -101.0964 265° West 447 514 34,000  Level Denver Center
20:40 41.2194 -101.3019 265° West 441 507 34,000  Level Denver Center
20:41 41.2047 -101.5061 265° West 438 504 34,000  Level Denver Center
20:42 41.1953 -101.6578 265° West 433 498 34,000  Level Denver Center
20:43 41.1833 -101.8339 265° West 430 495 34,000  Level Denver Center
20:44 41.1725 -101.9844 265° West 430 495 34,000  Level Denver Center
20:45 41.1617 -102.1331 265° West 425 489 34,000  Level Denver Center
20:46 41.1483 -102.3069 264° West 425 489 34,000  Level Denver Center
20:47 41.1378 -102.4536 265° West 419 482 34,000  Level Denver Center
20:49 41.1242 -102.6247 264° West 418 481 34,000  Level Denver Center
20:50 41.1117 -102.7958 265° West 419 482 34,000  Level Denver Center
20:51 41.0975 -102.9894 265° West 417 480 34,000  Level Denver Center
20:53 41.1197 -103.3081 275° West 414 476 34,000  Level Denver Center
20:54 41.1275 -103.4314 275° West 419 482 34,000  Level Denver Center
20:55 41.1389 -103.5994 275° West 413 475 34,000  Level Denver Center
20:57 41.1597 -103.9411 275° West 415 478 34,000  Level Salt Lake Center
20:58 41.1708 -104.0867 276° West 415 478 34,000  Level Denver Center
20:59 41.1794 -104.2322 275° West 414 476 34,000  Level Denver Center
21:00 41.1881 -104.3814 274° West 418 481 34,000  Level Denver Center
21:01 41.1981 -104.5525 274° West 418 481 34,000  Level Denver Center
21:02 41.2069 -104.7017 275° West 421 484 34,000  Level Denver Center
21:03 41.1950 -104.8517 264° West 427 491 34,000  Level Denver Center
21:04 41.1597 -105.0183 254° West 422 486 34,000  Level Denver Center
21:05 41.1300 -105.1628 255° West 423 487 34,000  Level Denver Center
21:06 41.0956 -105.3269 254° West 416 479 34,000  Level Denver Center
21:07 41.0658 -105.4656 254° West 411 473 34,000  Level Denver Center
21:08 41.0364 -105.6036 254° West 408 470 34,000  Level Denver Center
21:09 41.0053 -105.7444 254° West 400 460 34,000  Level Denver Center
21:10 40.9744 -105.8850 254° West 397 457 34,000  Level Denver Center
21:11 40.9383 -106.0506 254° West 397 457 34,000  Level Denver Center
21:12 40.9078 -106.1886 254° West 399 459 34,000  Level Denver Center
21:14 40.8731 -106.3431 253° West 395 455 34,000  Level Denver Center
21:15 40.8381 -106.4969 253° West 392 451 34,000  Level Denver Center
21:16 40.8131 -106.6086 254° West 395 455 34,000  Level Denver Center
21:17 40.7744 -106.7853 254° West 394 453 34,000  Level Denver Center
21:18 40.7425 -106.9217 253° West 394 453 34,000  Level Denver Center
21:19 40.7111 -107.0594 253° West 395 455 34,000  Level Denver Center
21:20 40.6800 -107.1947 253° West 390 449 34,000  Level Denver Center
21:21 40.6486 -107.3314 253° West 389 448 34,000  Level Denver Center
21:22 40.6131 -107.4828 253° West 389 448 34,000  Level Denver Center
21:23 40.5822 -107.6106 252° West 387 445 34,000  Level Denver Center
21:24 40.5522 -107.7378 253° West 384 442 34,000  Level Denver Center
21:25 40.5161 -107.8869 252° West 384 442 34,000  Level Denver Center
21:26 40.4869 -108.0158 253° West 385 443 34,000  Level Denver Center
21:27 40.4603 -108.1253 252° West 385 443 34,000  Level Salt Lake Center
21:28 40.4292 -108.2519 252° West 383 441 34,000  Level Salt Lake Center
21:29 40.3981 -108.3794 252° West 381 438 34,000  Level Salt Lake Center
21:29 40.3883 -108.4192 252° West 386 444 34,000  Level Denver Center
21:30 40.3525 -108.5678 252° West 385 443 34,000  Level Denver Center
21:31 40.3303 -108.6567 252° West 385 443 34,000  Level Salt Lake Center
21:32 40.2950 -108.8006 252° West 384 442 34,000  Level Salt Lake Center
21:33 40.2636 -108.9281 252° West 386 444 34,000  Level Salt Lake Center
21:33 40.2478 -108.9903 252° West 386 444 34,000  Level Denver Center
21:34 40.2100 -109.1381 252° West 386 444 34,000  Level Denver Center
21:35 40.1939 -109.2019 252° West 385 443 34,000  Level Salt Lake Center
21:36 40.1622 -109.3294 252° West 385 443 34,000  Level Salt Lake Center
21:37 40.1228 -109.4794 251° West 392 451 34,000  Level Salt Lake Center
21:37 40.1011 -109.5653 252° West 391 450 34,000  Level Denver Center
21:39 40.0628 -109.7133 251° West 386 444 34,000  Level Denver Center
21:39 40.0583 -109.7342 254° West 385 443 34,000  Level Salt Lake Center
21:40 40.0197 -109.8792 251° West 381 438 34,000  Level Salt Lake Center
21:41 39.9872 -110.0044 251° West 383 441 34,000  Level Salt Lake Center
21:42 39.9492 -110.1514 251° West 384 442 34,000  Level Salt Lake Center
21:43 39.9169 -110.2789 252° West 387 445 34,000  Level Salt Lake Center
21:44 39.8822 -110.4044 250° West 387 445 34,000  Level Salt Lake Center
21:45 39.8439 -110.5525 251° West 387 445 34,000  Level Salt Lake Center
21:46 39.8103 -110.6792 251° West 387 445 34,000  Level Salt Lake Center
21:47 39.7772 -110.8050 251° West 384 442 34,000  Level Salt Lake Center
21:48 39.7367 -110.9517 250° West 387 445 34,000  Level Salt Lake Center
21:49 39.7031 -111.0775 251° West 386 444 34,000  Level Salt Lake Center
21:50 39.6692 -111.2019 251° West 383 441 34,000  Level Salt Lake Center
21:51 39.6289 -111.3517 251° West 383 441 34,000  Level Salt Lake Center
21:52 39.5914 -111.4825 250° West 386 444 34,000  Level Salt Lake Center
21:53 39.5544 -111.6186 251° West 398 458 34,000  Level Salt Lake Center
21:54 39.5164 -111.7556 250° West 402 463 34,000  Level Salt Lake Center
21:55 39.4764 -111.8936 249° West 408 470 34,000  Level Salt Lake Center
21:56 39.4389 -112.0308 251° West 407 468 34,000  Level Salt Lake Center
21:57 39.3994 -112.1686 250° West 407 468 34,000  Level Salt Lake Center
21:58 39.3636 -112.3086 252° West 409 471 34,000  Level Salt Lake Center
21:59 39.3333 -112.4494 255° West 409 471 34,000  Level Salt Lake Center
22:00 39.3014 -112.5894 254° West 407 468 34,000  Level Salt Lake Center
22:01 39.2669 -112.7386 253° West 404 465 34,000  Level Salt Lake Center
22:02 39.2358 -112.8744 254° West 400 460 34,000  Level Salt Lake Center
22:03 39.2047 -113.0136 254° West 405 466 34,000  Level Salt Lake Center
22:04 39.1725 -113.1508 253° West 404 465 34,000  Level Salt Lake Center
22:05 39.1408 -113.2900 254° West 404 465 34,000  Level Salt Lake Center
22:06 39.1019 -113.4589 254° West 410 472 34,000  Level Salt Lake Center
22:07 39.0692 -113.6011 254° West 415 478 34,000  Level Salt Lake Center
22:08 39.0364 -113.7422 253° West 415 478 34,000  Level Salt Lake Center
22:09 39.0019 -113.8853 253° West 420 483 34,000  Level Salt Lake Center
22:10 38.9681 -114.0281 253° West 420 483 34,000  Level Salt Lake Center
22:11 38.9336 -114.1736 253° West 426 490 34,000  Level Salt Lake Center
22:12 38.8983 -114.3158 252° West 422 486 34,000  Level Salt Lake Center
22:13 38.8647 -114.4608 253° West 425 489 34,000  Level Salt Lake Center
22:14 38.8292 -114.6039 252° West 423 487 34,000  Level Salt Lake Center
22:15 38.7947 -114.7461 253° West 422 486 34,000  Level Salt Lake Center
22:16 38.7569 -114.8897 251° West 424 488 34,000  Level Salt Lake Center
22:17 38.7147 -115.0606 252° West 425 489 34,000  Level Salt Lake Center
22:18 38.6797 -115.2000 252° West 420 483 34,000  Level Salt Lake Center
22:19 38.6453 -115.3386 252° West 414 476 34,000  Level Salt Lake Center
22:20 38.6100 -115.4797 252° West 410 472 34,000  Level Salt Lake Center
22:21 38.5747 -115.6183 252° West 410 472 34,000  Level Salt Lake Center
22:23 38.5400 -115.7578 252° West 412 474 34,000  Level Salt Lake Center
22:24 38.5036 -115.8986 252° West 416 479 34,000  Level Salt Lake Center
22:25 38.4675 -116.0389 252° West 417 480 34,000  Level Salt Lake Center
22:25 38.4392 -116.1525 252° West 420 483 34,000  Level Oakland Center
22:26 38.4014 -116.2931 251° West 420 483 34,000  Level Oakland Center
22:27 38.3644 -116.4353 252° West 422 486 34,000  Level Oakland Center
22:28 38.3264 -116.5778 251° West 423 487 34,000  Level Oakland Center
22:29 38.2897 -116.7206 252° West 424 488 34,000  Level Oakland Center
22:30 38.2514 -116.8625 251° West 425 489 34,000  Level Oakland Center
22:31 38.2436 -116.8911 251° West 425 489 34,000  Level Salt Lake Center
22:32 38.2064 -117.0306 251° West 420 483 34,000  Level Salt Lake Center
22:32 38.1744 -117.1508 251° West 425 489 34,000  Level Oakland Center
22:33 38.1364 -117.2933 251° West 426 490 34,000  Level Oakland Center
22:34 38.0936 -117.4464 250° West 430 495 34,000  Level Oakland Center
22:35 38.0539 -117.5886 251° West 429 494 34,000  Level Oakland Center
22:36 38.0150 -117.7311 251° West 428 493 34,000  Level Oakland Center
22:37 37.9917 -117.8789 259° West 434 499 34,000  Level Oakland Center
22:38 37.9778 -118.0272 263° West 425 489 34,000  Level Oakland Center
22:39 37.9617 -118.1750 262° West 424 488 34,000  Level Oakland Center
22:41 37.9453 -118.3228 262° West 424 488 34,000  Level Oakland Center
22:42 37.9286 -118.4711 262° West 425 489 34,000  Level Oakland Center
22:43 37.9125 -118.6186 262° West 424 488 34,000  Level Oakland Center
22:44 37.8961 -118.7650 262° West 422 486 34,000  Level Oakland Center
22:45 37.8797 -118.9136 262° West 424 488 34,000  Level Oakland Center
22:46 37.8594 -119.0833 261° West 430 495 34,000  Level Oakland Center
22:47 37.8417 -119.2342 262° West 433 498 34,000  Level Oakland Center
22:48 37.8244 -119.3847 262° West 433 498 34,000  Level Oakland Center
22:49 37.8053 -119.5367 261° West 435 501 34,000  Level Oakland Center
22:50 37.7875 -119.6883 262° West 436 502 34,000  Level Oakland Center
22:51 37.7700 -119.8386 262° West 433 498 34,000  Level Oakland Center
22:52 37.7511 -119.9889 261° West 432 497 34,000  Level Oakland Center
22:53 37.7322 -120.1392 261° West 433 498 34,000  Level Oakland Center
22:54 37.7144 -120.2881 261° West 430 495 34,000 -780 Level Oakland Center
22:55 37.6967 -120.4367 261° West 429 494 32,500 -2,520 Descending Oakland Center
22:56 37.6750 -120.5894 260° West 436 502 29,000 -3,720 Descending Oakland Center
22:57 37.6553 -120.7444 261° West 443 510 25,000 -3,060 Descending Oakland Center
22:58 37.6356 -120.8981 261° West 444 511 22,800 -2,760 Descending Oakland Center
22:59 37.6156 -121.0456 260° West 435 501 19,500 -3,300 Descending Oakland Center
23:00 37.6014 -121.1772 262° West 408 470 16,200 -3,300 Descending Oakland Center
23:00 37.6000 -121.2333 268° West 407 468 15,400 -2,760 Descending Northern Cal TRACON
23:01 37.5833 -121.3667 261° West 392 451 12,800 -2,100 Descending Northern Cal TRACON
23:02 37.5667 -121.4833 260° West 362 417 11,500 -900 Descending Northern Cal TRACON
23:03 37.5500 -121.5833 258° West 287 330 11,200 -840 Descending Northern Cal TRACON
23:04 37.5500 -121.6833 270° West 274 315 9,900 -960 Descending Northern Cal TRACON
23:05 37.5167 -121.7667 243° Southwest 247 284 9,200 -840 Descending Northern Cal TRACON
23:06 37.5167 -121.8500 270° West 219 252 8,200 -600 Descending Northern Cal TRACON
23:07 37.5000 -121.9333 256° West 226 260 8,000 -720 Descending Northern Cal TRACON
23:08 37.4667 -122.0000 238° Southwest 210 242 6,800 -960 Descending Northern Cal TRACON
23:09 37.4333 -122.0500 230° Southwest 191 220 6,100 -960 Descending Northern Cal TRACON
23:10 37.4500 -122.1000 293° West 192 221 5,000 -1,080 Descending Northern Cal TRACON
23:11 37.5000 -122.1333 332° Northwest 194 223 4,000 -1,020 Descending Northern Cal TRACON